QPF
0.00 0.00 0.00 0.00 0.00 0.00 0.00 0.00 0.00 0.00 0.00 0.00 0.00 0.00 0.00 0.00 0.00 0.00 0.00 0.00 0.00 0.00 0.00 0.01 0.01 0.01 0.02 0.04 0.05 0.06 0.07 0.08 0.10 0.10 0.08 0.08 0.10 0.08 0.05 0.03 0.03 0.03 0.03 0.04
0.00 0.00 0.00 0.00 0.00 0.00 0.00 0.00 0.00 0.00 0.00 0.00 0.00 0.00 0.00 0.00 0.00 0.00 0.00 0.00 0.00 0.01 0.00 0.01 0.02 0.01 0.02 0.04 0.05 0.05 0.07 0.07 0.06 0.08 0.10 0.09 0.11 0.10 0.07 0.05 0.07 0.03 0.03 0.04
0.00 0.00 0.00 0.00 0.00 0.00 0.00 0.00 0.00 0.00 0.00 0.00 0.00 0.00 0.00 0.00 0.00 0.00 0.00 0.00 0.01 0.01 0.02 0.01 0.02 0.01 0.01 0.03 0.04 0.04 0.07 0.07 0.08 0.11 0.11 0.12 0.14 0.13 0.12 0.10 0.09 0.05 0.03 0.04
0.00 0.00 0.00 0.00 0.00 0.00 0.00 0.00 0.00 0.00 0.00 0.00 0.00 0.00 0.00 0.01 0.01 0.00 0.00 0.00 0.01 0.01 0.01 0.01 0.01 0.01 0.02 0.02 0.02 0.03 0.07 0.09 0.10 0.12 0.10 0.09 0.09 0.10 0.10 0.09 0.08 0.07 0.05 0.05
0.00 0.00 0.00 0.00 0.00 0.00 0.00 0.00 0.00 0.00 0.00 0.00 0.00 0.00 0.00 0.01 0.01 0.00 0.00 0.00 0.01 0.01 0.01 0.01 0.01 0.02 0.03 0.03 0.02 0.02 0.05 0.09 0.08 0.09 0.12 0.13 0.13 0.14 0.13 0.10 0.12 0.10 0.08 0.06
0.00 0.00 0.00 0.00 0.00 0.00 0.00 0.00 0.00 0.00 0.00 0.00 0.00 0.00 0.00 0.00 0.00 0.00 0.00 0.00 0.00 0.00 0.00 0.00 0.01 0.02 0.04 0.05 0.04 0.04 0.06 0.09 0.11 0.15 0.21 0.13 0.15 0.17 0.16 0.15 0.13 0.08 0.06 0.06
0.00 0.00 0.00 0.00 0.00 0.00 0.00 0.00 0.00 0.00 0.00 0.00 0.00 0.00 0.00 0.00 0.00 0.00 0.00 0.00 0.00 0.00 0.00 0.01 0.01 0.03 0.04 0.04 0.04 0.05 0.06 0.08 0.09 0.10 0.14 0.11 0.14 0.15 0.15 0.15 0.13 0.09 0.05 0.05
0.00 0.00 0.00 0.00 0.00 0.00 0.00 0.00 0.00 0.00 0.01 0.01 0.01 0.01 0.00 0.00 0.00 0.00 0.00 0.00 0.00 0.00 0.00 0.01 0.02 0.02 0.03 0.03 0.05 0.05 0.05 0.08 0.08 0.07 0.10 0.12 0.14 0.14 0.12 0.13 0.12 0.10 0.07 0.07
0.00 0.00 0.00 0.00 0.00 0.00 0.00 0.00 0.00 0.00 0.00 0.00 0.01 0.00 0.00 0.00 0.00 0.00 0.00 0.00 0.00 0.00 0.00 0.01 0.01 0.01 0.02 0.02 0.03 0.04 0.04 0.07 0.08 0.07 0.11 0.12 0.12 0.14 0.15 0.14 0.11 0.10 0.09 0.08
0.00 0.00 0.00 0.00 0.00 0.00 0.00 0.00 0.00 0.00 0.00 0.00 0.00 0.01 0.01 0.01 0.01 0.01 0.00 0.00 0.01 0.00 0.00 0.00 0.00 0.01 0.02 0.02 0.02 0.03 0.05 0.07 0.09 0.07 0.09 0.10 0.10 0.10 0.13 0.15 0.13 0.11 0.10 0.09
0.00 0.00 0.00 0.00 0.00 0.00 0.00 0.00 0.00 0.00 0.00 0.00 0.01 0.02 0.03 0.05 0.02 0.00 0.00 0.00 0.00 0.00 0.01 0.03 0.01 0.00 0.01 0.01 0.01 0.02 0.03 0.06 0.06 0.06 0.07 0.10 0.10 0.11 0.13 0.14 0.12 0.10 0.10 0.10
0.00 0.00 0.00 0.00 0.00 0.00 0.00 0.00 0.00 0.00 0.00 0.00 0.00 0.02 0.03 0.03 0.01 0.00 0.00 0.00 0.00 0.00 0.02 0.08 0.02 0.00 0.00 0.01 0.01 0.02 0.02 0.02 0.03 0.04 0.06 0.08 0.09 0.12 0.15 0.15 0.13 0.12 0.12 0.10
0.00 0.00 0.00 0.00 0.00 0.00 0.00 0.00 0.00 0.00 0.00 0.00 0.00 0.01 0.01 0.02 0.01 0.00 0.00 0.01 0.02 0.00 0.01 0.04 0.02 0.00 0.00 0.01 0.01 0.01 0.01 0.02 0.03 0.03 0.05 0.08 0.10 0.11 0.14 0.17 0.18 0.16 0.15 0.13
0.00 0.00 0.00 0.00 0.00 0.00 0.00 0.00 0.00 0.00 0.00 0.00 0.00 0.00 0.01 0.02 0.03 0.02 0.02 0.01 0.01 0.00 0.01 0.02 0.02 0.01 0.01 0.01 0.01 0.02 0.02 0.03 0.03 0.03 0.04 0.06 0.08 0.12 0.14 0.12 0.12 0.13 0.11 0.10
0.00 0.00 0.00 0.00 0.00 0.00 0.00 0.00 0.00 0.00 0.00 0.00 0.00 0.01 0.05 0.06 0.06 0.05 0.02 0.01 0.01 0.01 0.01 0.01 0.01 0.01 0.01 0.01 0.02 0.02 0.03 0.05 0.05 0.05 0.05 0.06 0.07 0.09 0.09 0.09 0.10 0.10 0.09 0.09
0.00 0.00 0.00 0.00 0.00 0.00 0.00 0.00 0.00 0.00 0.00 0.00 0.00 0.03 0.10 0.10 0.06 0.04 0.02 0.01 0.01 0.01 0.00 0.00 0.01 0.01 0.01 0.01 0.02 0.02 0.03 0.04 0.05 0.06 0.06 0.07 0.08 0.09 0.07 0.06 0.08 0.08 0.08 0.09
0.00 0.00 0.00 0.00 0.00 0.00 0.00 0.00 0.00 0.00 0.00 0.00 0.01 0.04 0.07 0.06 0.06 0.04 0.03 0.01 0.01 0.00 0.00 0.01 0.01 0.01 0.01 0.01 0.03 0.03 0.02 0.03 0.04 0.06 0.07 0.07 0.08 0.10 0.07 0.06 0.07 0.08 0.09 0.10
0.00 0.00 0.00 0.00 0.00 0.00 0.00 0.00 0.00 0.00 0.00 0.00 0.01 0.02 0.04 0.04 0.06 0.03 0.01 0.00 0.00 0.00 0.00 0.01 0.01 0.02 0.01 0.01 0.01 0.01 0.01 0.02 0.03 0.04 0.07 0.08 0.07 0.09 0.08 0.07 0.08 0.11 0.12 0.12
0.00 0.00 0.00 0.00 0.00 0.00 0.00 0.00 0.00 0.00 0.00 0.00 0.01 0.02 0.02 0.03 0.01 0.01 0.00 0.00 0.00 0.00 0.00 0.01 0.01 0.02 0.03 0.01 0.00 0.00 0.01 0.02 0.03 0.04 0.06 0.08 0.07 0.09 0.11 0.10 0.08 0.08 0.10 0.11
0.00 0.00 0.00 0.00 0.00 0.00 0.01 0.01 0.01 0.00 0.01 0.02 0.01 0.02 0.02 0.01 0.03 0.04 0.01 0.00 0.00 0.00 0.01 0.01 0.01 0.01 0.03 0.03 0.01 0.01 0.02 0.03 0.03 0.04 0.05 0.06 0.07 0.09 0.10 0.10 0.10 0.09 0.09 0.09
0.00 0.00 0.00 0.00 0.00 0.01 0.01 0.01 0.01 0.02 0.03 0.04 0.02 0.01 0.01 0.02 0.02 0.02 0.01 0.00 0.00 0.00 0.01 0.01 0.01 0.02 0.02 0.04 0.03 0.03 0.03 0.04 0.04 0.05 0.06 0.06 0.07 0.08 0.10 0.09 0.08 0.09 0.08 0.07
0.00 0.00 0.00 0.00 0.01 0.02 0.01 0.01 0.03 0.06 0.05 0.02 0.01 0.03 0.02 0.01 0.00 0.00 0.00 0.00 0.00 0.00 0.01 0.01 0.01 0.02 0.02 0.03 0.04 0.04 0.04 0.04 0.04 0.04 0.05 0.05 0.05 0.06 0.07 0.08 0.06 0.06 0.07 0.07
0.00 0.01 0.01 0.01 0.03 0.03 0.01 0.01 0.02 0.03 0.04 0.01 0.01 0.02 0.01 0.00 0.00 0.00 0.00 0.00 0.01 0.01 0.01 0.01 0.02 0.02 0.03 0.04 0.05 0.07 0.06 0.05 0.04 0.05 0.05 0.04 0.04 0.05 0.07 0.08 0.09 0.09 0.08 0.08
0.02 0.01 0.01 0.02 0.04 0.02 0.01 0.01 0.03 0.05 0.03 0.01 0.01 0.02 0.00 0.00 0.00 0.00 0.01 0.01 0.01 0.01 0.01 0.02 0.02 0.03 0.05 0.05 0.05 0.07 0.06 0.05 0.04 0.04 0.04 0.03 0.04 0.04 0.04 0.05 0.07 0.08 0.09 0.10
0.04 0.02 0.01 0.03 0.04 0.03 0.04 0.04 0.04 0.03 0.01 0.01 0.01 0.01 0.00 0.00 0.00 0.01 0.01 0.01 0.01 0.01 0.02 0.02 0.03 0.03 0.04 0.06 0.07 0.07 0.05 0.04 0.04 0.04 0.04 0.05 0.06 0.05 0.05 0.05 0.06 0.08 0.08 0.08
0.04 0.04 0.04 0.07 0.04 0.04 0.05 0.02 0.02 0.01 0.00 0.00 0.00 0.00 0.00 0.00 0.00 0.01 0.01 0.01 0.01 0.02 0.03 0.03 0.03 0.03 0.04 0.05 0.07 0.07 0.05 0.05 0.06 0.06 0.06 0.07 0.07 0.07 0.07 0.06 0.07 0.09 0.08 0.09
MSLP
1007.83 1008.16 1008.28 1008.23 1008.06 1007.85 1007.63 1007.43 1007.25 1007.06 1006.82 1006.51 1006.12 1005.66 1005.18 1004.77 1004.47 1004.34 1004.42 1004.70 1005.15 1005.71 1006.32 1006.94 1007.54 1008.11 1008.66 1009.22 1009.80 1010.42 1011.08 1011.73 1012.34 1012.85 1013.23 1013.46 1013.55 1013.53 1013.46 1013.40 1013.42 1013.56 1013.83 1014.23
1008.14 1008.27 1008.20 1008.00 1007.76 1007.54 1007.40 1007.34 1007.33 1007.31 1007.22 1007.00 1006.65 1006.17 1005.62 1005.10 1004.70 1004.48 1004.50 1004.75 1005.20 1005.79 1006.45 1007.10 1007.71 1008.26 1008.77 1009.27 1009.79 1010.37 1011.01 1011.67 1012.32 1012.89 1013.33 1013.61 1013.73 1013.70 1013.59 1013.48 1013.42 1013.49 1013.70 1014.07
1008.28 1008.21 1007.97 1007.65 1007.36 1007.18 1007.16 1007.27 1007.46 1007.63 1007.70 1007.58 1007.26 1006.75 1006.13 1005.50 1004.98 1004.66 1004.60 1004.82 1005.27 1005.89 1006.58 1007.26 1007.87 1008.39 1008.85 1009.28 1009.72 1010.23 1010.82 1011.47 1012.14 1012.75 1013.26 1013.61 1013.79 1013.79 1013.69 1013.54 1013.44 1013.45 1013.61 1013.93
1008.21 1007.97 1007.60 1007.22 1006.95 1006.86 1006.99 1007.30 1007.71 1008.08 1008.30 1008.28 1007.98 1007.43 1006.71 1005.95 1005.29 1004.86 1004.71 1004.88 1005.32 1005.96 1006.68 1007.38 1008.01 1008.51 1008.92 1009.27 1009.63 1010.05 1010.56 1011.17 1011.83 1012.48 1013.04 1013.47 1013.71 1013.78 1013.72 1013.59 1013.48 1013.45 1013.56 1013.82
1007.93 1007.58 1007.15 1006.78 1006.58 1006.64 1006.96 1007.49 1008.10 1008.66 1009.02 1009.07 1008.77 1008.16 1007.33 1006.43 1005.62 1005.05 1004.81 1004.91 1005.33 1005.97 1006.73 1007.47 1008.11 1008.62 1008.99 1009.28 1009.55 1009.88 1010.30 1010.84 1011.47 1012.12 1012.73 1013.22 1013.54 1013.70 1013.70 1013.62 1013.52 1013.48 1013.55 1013.75
1007.47 1007.08 1006.65 1006.35 1006.28 1006.52 1007.04 1007.79 1008.60 1009.32 1009.78 1009.88 1009.56 1008.88 1007.93 1006.88 1005.93 1005.22 1004.86 1004.90 1005.28 1005.93 1006.71 1007.49 1008.18 1008.70 1009.07 1009.32 1009.52 1009.76 1010.09 1010.55 1011.12 1011.75 1012.37 1012.90 1013.31 1013.54 1013.63 1013.61 1013.55 1013.52 1013.57 1013.72
1006.87 1006.49 1006.14 1005.96 1006.05 1006.47 1007.19 1008.12 1009.09 1009.93 1010.46 1010.58 1010.24 1009.48 1008.43 1007.26 1006.17 1005.33 1004.86 1004.82 1005.17 1005.81 1006.62 1007.45 1008.18 1008.75 1009.14 1009.38 1009.54 1009.72 1009.97 1010.34 1010.83 1011.41 1012.02 1012.57 1013.03 1013.34 1013.51 1013.56 1013.55 1013.54 1013.58 1013.70
1006.19 1005.88 1005.64 1005.60 1005.85 1006.44 1007.31 1008.36 1009.44 1010.34 1010.91 1011.04 1010.68 1009.87 1008.75 1007.49 1006.31 1005.38 1004.82 1004.71 1005.01 1005.63 1006.46 1007.32 1008.11 1008.74 1009.17 1009.44 1009.60 1009.73 1009.92 1010.21 1010.62 1011.13 1011.69 1012.24 1012.71 1013.08 1013.31 1013.44 1013.48 1013.51 1013.55 1013.66
1005.50 1005.29 1005.18 1005.28 1005.67 1006.36 1007.31 1008.42 1009.53 1010.44 1011.02 1011.14 1010.78 1009.97 1008.84 1007.57 1006.35 1005.37 1004.76 1004.59 1004.84 1005.43 1006.25 1007.13 1007.97 1008.65 1009.14 1009.46 1009.64 1009.77 1009.91 1010.14 1010.47 1010.90 1011.39 1011.90 1012.37 1012.75 1013.03 1013.21 1013.31 1013.38 1013.44 1013.55
1004.88 1004.80 1004.81 1005.02 1005.47 1006.20 1007.15 1008.23 1009.29 1010.17 1010.72 1010.85 1010.52 1009.77 1008.70 1007.49 1006.31 1005.35 1004.73 1004.52 1004.72 1005.26 1006.04 1006.91 1007.76 1008.48 1009.03 1009.40 1009.63 1009.77 1009.90 1010.08 1010.34 1010.68 1011.10 1011.54 1011.98 1012.36 1012.66 1012.87 1013.02 1013.13 1013.23 1013.35
1004.42 1004.45 1004.56 1004.82 1005.28 1005.96 1006.82 1007.78 1008.72 1009.51 1010.02 1010.17 1009.91 1009.29 1008.37 1007.31 1006.26 1005.39 1004.80 1004.58 1004.72 1005.18 1005.89 1006.71 1007.53 1008.26 1008.85 1009.27 1009.54 1009.72 1009.86 1010.01 1010.21 1010.48 1010.81 1011.18 1011.56 1011.91 1012.21 1012.45 1012.64 1012.79 1012.93 1013.08
1004.16 1004.30 1004.47 1004.73 1005.13 1005.69 1006.37 1007.15 1007.92 1008.58 1009.04 1009.22 1009.08 1008.63 1007.94 1007.10 1006.26 1005.53 1005.02 1004.80 1004.89 1005.27 1005.86 1006.58 1007.33 1008.03 1008.62 1009.07 1009.39 1009.61 1009.77 1009.91 1010.07 1010.28 1010.54 1010.83 1011.15 1011.46 1011.75 1012.01 1012.23 1012.42 1012.61 1012.80
1004.11 1004.34 1004.54 1004.78 1005.06 1005.44 1005.91 1006.45 1007.01 1007.52 1007.92 1008.14 1008.13 1007.91 1007.49 1006.94 1006.35 1005.82 1005.42 1005.23 1005.27 1005.54 1006.00 1006.58 1007.22 1007.85 1008.41 1008.87 1009.22 1009.48 1009.66 1009.81 1009.96 1010.12 1010.32 1010.55 1010.81 1011.08 1011.36 1011.63 1011.88 1012.11 1012.34 1012.57
1004.25 1004.54 1004.77 1004.94 1005.10 1005.28 1005.50 1005.79 1006.12 1006.48 1006.81 1007.06 1007.21 1007.21 1007.09 1006.85 1006.54 1006.23 1005.98 1005.84 1005.85 1006.01 1006.33 1006.76 1007.26 1007.78 1008.29 1008.73 1009.10 1009.39 1009.60 1009.76 1009.90 1010.04 1010.19 1010.38 1010.60 1010.84 1011.11 1011.39 1011.67 1011.95 1012.22 1012.49
1004.51 1004.86 1005.09 1005.21 1005.23 1005.22 1005.21 1005.25 1005.37 1005.56 1005.82 1006.10 1006.38 1006.61 1006.77 1006.83 1006.81 1006.73 1006.64 1006.57 1006.56 1006.64 1006.82 1007.10 1007.47 1007.88 1008.31 1008.72 1009.08 1009.39 1009.63 1009.81 1009.95 1010.08 1010.21 1010.37 1010.56 1010.80 1011.07 1011.37 1011.69 1012.01 1012.33 1012.63
1004.81 1005.21 1005.44 1005.51 1005.43 1005.26 1005.05 1004.88 1004.80 1004.85 1005.03 1005.33 1005.71 1006.12 1006.52 1006.85 1007.09 1007.24 1007.31 1007.33 1007.33 1007.36 1007.44 1007.60 1007.83 1008.14 1008.49 1008.85 1009.20 1009.51 1009.77 1009.97 1010.12 1010.25 1010.37 1010.52 1010.71 1010.95 1011.24 1011.58 1011.94 1012.31 1012.67 1013.01
1005.07 1005.50 1005.75 1005.79 1005.64 1005.35 1005.00 1004.66 1004.42 1004.34 1004.45 1004.74 1005.18 1005.73 1006.31 1006.86 1007.33 1007.68 1007.91 1008.02 1008.07 1008.08 1008.11 1008.18 1008.33 1008.54 1008.82 1009.14 1009.46 1009.76 1010.02 1010.22 1010.38 1010.51 1010.64 1010.79 1010.99 1011.26 1011.59 1011.97 1012.39 1012.82 1013.23 1013.61
1005.24 1005.68 1005.94 1005.97 1005.80 1005.45 1005.01 1004.57 1004.22 1004.04 1004.07 1004.33 1004.80 1005.42 1006.12 1006.83 1007.46 1007.98 1008.36 1008.59 1008.71 1008.75 1008.76 1008.80 1008.89 1009.05 1009.27 1009.53 1009.81 1010.09 1010.33 1010.52 1010.68 1010.81 1010.94 1011.11 1011.34 1011.64 1012.02 1012.47 1012.95 1013.45 1013.93 1014.37
1005.30 1005.74 1006.00 1006.04 1005.86 1005.51 1005.04 1004.55 1004.14 1003.90 1003.87 1004.09 1004.55 1005.19 1005.95 1006.75 1007.51 1008.15 1008.66 1009.00 1009.21 1009.32 1009.37 1009.40 1009.47 1009.59 1009.76 1009.97 1010.20 1010.43 1010.63 1010.79 1010.93 1011.05 1011.19 1011.38 1011.64 1011.99 1012.44 1012.96 1013.53 1014.12 1014.68 1015.19
1005.28 1005.68 1005.93 1005.99 1005.84 1005.51 1005.07 1004.59 1004.17 1003.89 1003.83 1004.01 1004.44 1005.07 1005.85 1006.69 1007.51 1008.25 1008.86 1009.31 1009.62 1009.81 1009.91 1009.97 1010.04 1010.13 1010.26 1010.41 1010.57 1010.73 1010.87 1010.98 1011.08 1011.19 1011.33 1011.54 1011.84 1012.25 1012.77 1013.38 1014.05 1014.73 1015.40 1016.00
1005.23 1005.56 1005.78 1005.85 1005.75 1005.48 1005.10 1004.67 1004.29 1004.03 1003.96 1004.11 1004.51 1005.11 1005.87 1006.72 1007.58 1008.38 1009.06 1009.60 1010.00 1010.26 1010.43 1010.53 1010.60 1010.66 1010.74 1010.82 1010.90 1010.97 1011.03 1011.08 1011.13 1011.21 1011.35 1011.57 1011.92 1012.39 1012.99 1013.69 1014.47 1015.26 1016.04 1016.76
1005.18 1005.43 1005.62 1005.70 1005.64 1005.45 1005.16 1004.83 1004.52 1004.31 1004.27 1004.43 1004.80 1005.38 1006.11 1006.95 1007.81 1008.63 1009.36 1009.97 1010.44 1010.77 1010.98 1011.11 1011.18 1011.21 1011.22 1011.22 1011.20 1011.18 1011.15 1011.12 1011.12 1011.17 1011.31 1011.55 1011.94 1012.47 1013.15 1013.94 1014.82 1015.73 1016.62 1017.46
1005.18 1005.34 1005.48 1005.56 1005.55 1005.46 1005.28 1005.07 1004.88 1004.77 1004.78 1004.97 1005.35 1005.91 1006.62 1007.42 1008.27 1009.10 1009.85 1010.49 1011.00 1011.38 1011.62 1011.76 1011.81 1011.80 1011.74 1011.66 1011.55 1011.42 1011.31 1011.21 1011.16 1011.19 1011.32 1011.59 1012.01 1012.60 1013.35 1014.22 1015.18 1016.19 1017.18 1018.12
1005.22 1005.29 1005.39 1005.47 1005.53 1005.53 1005.48 1005.41 1005.36 1005.37 1005.49 1005.74 1006.14 1006.70 1007.38 1008.17 1008.99 1009.80 1010.54 1011.19 1011.72 1012.11 1012.37 1012.50 1012.53 1012.47 1012.35 1012.18 1011.99 1011.78 1011.60 1011.45 1011.36 1011.38 1011.52 1011.81 1012.27 1012.91 1013.70 1014.63 1015.65 1016.72 1017.78 1018.81
1005.28 1005.28 1005.35 1005.45 1005.57 1005.67 1005.76 1005.85 1005.96 1006.11 1006.34 1006.67 1007.12 1007.68 1008.36 1009.11 1009.90 1010.67 1011.40 1012.04 1012.56 1012.95 1013.20 1013.32 1013.32 1013.22 1013.05 1012.83 1012.58 1012.32 1012.09 1011.92 1011.83 1011.85 1012.01 1012.33 1012.82 1013.48 1014.30 1015.25 1016.29 1017.38 1018.47 1019.53
1005.31 1005.28 1005.34 1005.48 1005.66 1005.88 1006.11 1006.35 1006.61 1006.91 1007.26 1007.67 1008.17 1008.76 1009.42 1010.14 1010.89 1011.62 1012.31 1012.92 1013.43 1013.80 1014.05 1014.15 1014.14 1014.03 1013.84 1013.60 1013.32 1013.06 1012.82 1012.66 1012.58 1012.63 1012.82 1013.17 1013.68 1014.35 1015.17 1016.11 1017.13 1018.19 1019.25 1020.28
Thickness
5827 5815 5811 5824 5836 5837 5837 5834 5834 5848 5864 5853 5845 5847 5855 5862 5857 5848 5841 5835 5828 5824 5824 5820 5814 5808 5801 5794 5787 5781 5775 5770 5764 5758 5754 5751 5750 5752 5754 5755 5754 5753 5752 5752
5814 5810 5828 5842 5846 5841 5834 5826 5831 5846 5861 5851 5841 5844 5856 5859 5854 5850 5843 5835 5829 5821 5818 5815 5810 5805 5798 5791 5786 5781 5775 5770 5765 5761 5757 5754 5752 5752 5754 5754 5754 5752 5751 5751
5808 5828 5846 5838 5832 5828 5826 5824 5830 5834 5848 5851 5839 5831 5842 5850 5853 5851 5847 5840 5831 5824 5814 5810 5806 5802 5798 5791 5786 5782 5776 5772 5767 5762 5757 5753 5750 5750 5749 5749 5750 5751 5750 5750
5820 5837 5838 5830 5827 5827 5817 5838 5838 5834 5826 5822 5831 5808 5828 5834 5834 5838 5840 5837 5830 5824 5818 5812 5806 5801 5797 5793 5789 5783 5777 5772 5767 5763 5757 5751 5747 5745 5746 5748 5748 5749 5749 5748
5819 5831 5829 5822 5827 5833 5829 5845 5839 5832 5822 5815 5823 5813 5817 5830 5818 5826 5834 5835 5832 5826 5820 5813 5808 5804 5800 5795 5790 5784 5778 5771 5767 5763 5758 5753 5749 5748 5748 5748 5747 5747 5748 5748
5828 5844 5841 5835 5841 5841 5839 5833 5828 5825 5818 5795 5812 5810 5809 5823 5823 5829 5834 5833 5831 5827 5822 5815 5810 5805 5800 5795 5790 5784 5777 5771 5767 5763 5759 5755 5751 5748 5746 5745 5744 5744 5745 5746
5810 5826 5842 5844 5828 5834 5829 5806 5788 5784 5784 5785 5813 5811 5817 5837 5844 5840 5835 5833 5830 5827 5820 5812 5805 5800 5796 5792 5788 5783 5776 5770 5767 5763 5760 5757 5753 5750 5747 5745 5744 5743 5743 5743
5796 5800 5828 5836 5826 5819 5820 5812 5784 5773 5772 5771 5787 5792 5818 5846 5849 5846 5841 5835 5829 5824 5818 5811 5805 5799 5795 5791 5786 5781 5775 5770 5767 5764 5760 5758 5755 5752 5749 5748 5746 5745 5744 5745
5808 5808 5841 5842 5841 5829 5815 5814 5824 5807 5799 5787 5790 5803 5818 5835 5836 5835 5833 5829 5823 5820 5816 5809 5804 5799 5794 5790 5786 5782 5775 5770 5767 5764 5761 5758 5755 5752 5750 5749 5747 5746 5745 5745
5818 5808 5832 5842 5838 5833 5829 5825 5814 5799 5780 5774 5789 5790 5790 5805 5812 5820 5823 5822 5818 5817 5814 5809 5804 5799 5794 5790 5785 5781 5776 5770 5767 5764 5761 5758 5755 5753 5750 5748 5745 5744 5744 5743
5820 5803 5815 5826 5815 5813 5815 5812 5810 5807 5804 5784 5775 5776 5802 5797 5808 5814 5820 5823 5819 5816 5811 5804 5800 5798 5794 5789 5784 5778 5773 5769 5766 5763 5760 5756 5754 5752 5749 5746 5744 5743 5742 5740
5819 5807 5799 5815 5835 5837 5826 5817 5810 5787 5788 5796 5787 5783 5812 5808 5813 5818 5821 5823 5820 5814 5809 5803 5798 5794 5790 5786 5781 5775 5771 5767 5765 5762 5759 5755 5752 5750 5747 5744 5742 5741 5739 5737
5815 5798 5779 5787 5808 5824 5819 5822 5819 5811 5800 5792 5785 5781 5815 5817 5816 5818 5816 5815 5813 5809 5805 5800 5794 5790 5787 5783 5779 5774 5770 5766 5764 5761 5756 5753 5750 5747 5743 5741 5739 5738 5736 5733
5814 5794 5783 5781 5796 5810 5807 5814 5819 5809 5795 5792 5796 5789 5802 5802 5800 5805 5807 5807 5808 5803 5799 5794 5787 5785 5783 5779 5775 5771 5768 5765 5762 5758 5753 5749 5746 5744 5741 5738 5736 5733 5731 5728
5803 5784 5788 5798 5810 5813 5810 5810 5813 5808 5806 5800 5800 5795 5791 5793 5793 5794 5799 5801 5800 5796 5792 5788 5783 5780 5777 5774 5771 5768 5764 5761 5757 5753 5748 5745 5742 5740 5737 5733 5731 5728 5726 5724
5790 5778 5782 5784 5801 5808 5806 5811 5813 5813 5813 5810 5804 5792 5794 5789 5791 5790 5794 5795 5791 5789 5787 5784 5780 5775 5771 5768 5765 5763 5759 5756 5752 5748 5744 5741 5737 5734 5731 5728 5725 5722 5719 5717
5778 5767 5762 5767 5790 5793 5786 5805 5810 5812 5818 5813 5796 5794 5792 5784 5780 5781 5789 5790 5787 5785 5783 5779 5775 5770 5766 5763 5761 5757 5754 5751 5747 5742 5738 5735 5732 5728 5725 5722 5718 5714 5711 5709
5767 5762 5758 5760 5766 5751 5788 5821 5820 5813 5813 5816 5806 5798 5792 5783 5780 5784 5791 5789 5784 5781 5777 5773 5770 5765 5762 5760 5756 5753 5750 5745 5741 5736 5733 5729 5726 5721 5718 5714 5709 5706 5703 5700
5771 5758 5751 5751 5750 5760 5787 5805 5809 5800 5795 5808 5800 5790 5786 5784 5779 5776 5782 5783 5778 5775 5771 5768 5766 5762 5757 5753 5750 5746 5742 5738 5734 5730 5726 5723 5720 5715 5711 5706 5701 5698 5695 5691
5762 5758 5745 5744 5738 5742 5773 5800 5811 5799 5775 5798 5795 5784 5781 5779 5763 5759 5772 5773 5769 5766 5764 5760 5758 5754 5748 5745 5743 5738 5734 5730 5726 5723 5720 5717 5713 5709 5704 5700 5695 5691 5688 5682
5736 5736 5734 5734 5735 5753 5781 5792 5791 5758 5759 5784 5786 5782 5777 5769 5765 5761 5763 5760 5759 5756 5755 5752 5747 5742 5739 5737 5734 5728 5724 5720 5718 5717 5713 5709 5705 5701 5697 5692 5688 5683 5678 5672
5731 5728 5726 5731 5728 5736 5772 5774 5760 5755 5771 5776 5775 5771 5765 5761 5758 5754 5751 5748 5747 5744 5743 5741 5736 5732 5730 5728 5724 5718 5714 5712 5710 5707 5703 5699 5696 5693 5688 5683 5678 5674 5669 5663
5737 5738 5738 5736 5734 5747 5760 5758 5762 5767 5761 5763 5763 5761 5756 5750 5746 5743 5740 5738 5735 5733 5730 5729 5725 5721 5718 5716 5713 5708 5705 5704 5700 5696 5692 5689 5685 5681 5677 5673 5668 5664 5659 5654
5729 5740 5735 5728 5729 5741 5747 5750 5754 5755 5754 5754 5754 5751 5747 5740 5737 5733 5729 5726 5722 5720 5718 5717 5714 5710 5705 5704 5702 5699 5696 5694 5690 5685 5681 5677 5673 5668 5663 5660 5656 5652 5648 5644
5709 5719 5722 5719 5723 5729 5733 5736 5739 5740 5743 5743 5743 5741 5736 5731 5726 5722 5717 5713 5710 5708 5706 5704 5701 5697 5694 5692 5690 5688 5685 5683 5679 5675 5670 5666 5660 5655 5649 5643 5639 5637 5633 5633
5703 5702 5702 5702 5716 5718 5717 5726 5729 5727 5728 5729 5727 5724 5723 5719 5714 5710 5705 5701 5699 5696 5694 5691 5688 5685 5682 5680 5678 5676 5674 5673 5669 5664 5659 5654 5649 5643 5637 5631 5623 5618 5618 5615